Temp
17 14 15 15 14 14 13 14 14 14 13 12 12 13 13 14 13 14 14 14 14 14 14 14 14 14 14 13 13 12 12 10 11 10 9 9 10 10 10 10 10 11 11
13 15 14 14 14 15 16 15 14 14 13 13 14 13 12 12 13 13 13 14 14 14 14 14 14 13 13 13 13 12 10 9 11 10 10 11 10 9 9 9 10 10 10
14 15 14 14 14 14 14 14 14 13 13 12 13 13 12 12 12 13 13 14 14 14 14 14 14 14 13 13 12 12 11 9 11 11 11 11 12 9 8 9 9 9 9
12 13 14 13 14 14 13 13 13 12 13 13 13 13 12 12 12 13 14 14 14 14 14 14 14 14 14 13 13 12 12 12 10 10 11 11 10 11 10 7 8 8 8
11 12 13 14 14 14 14 13 13 12 12 13 13 14 13 14 14 14 14 14 14 14 14 14 14 14 14 13 13 12 12 12 11 11 10 10 10 10 10 9 7 7 7
11 11 12 13 13 14 15 14 13 12 13 13 13 14 14 13 13 13 14 14 14 14 14 14 14 14 14 13 13 13 12 12 12 11 12 12 11 10 9 8 7 8 5
9 9 11 12 13 14 14 14 13 12 12 12 12 13 14 14 14 14 13 12 13 13 14 13 13 14 14 13 13 13 13 12 12 12 12 12 13 13 11 8 7 7 4
8 8 7 9 11 14 15 14 13 13 13 12 12 11 13 13 14 14 14 14 14 15 14 14 14 14 14 13 13 13 12 12 12 12 12 12 12 13 13 11 8 7 5
7 7 8 8 8 10 12 14 14 13 12 12 12 12 11 11 12 13 13 13 13 12 14 14 14 13 13 13 13 13 12 12 12 12 12 11 11 12 12 12 12 9 7
6 6 6 6 6 6 8 11 13 14 13 12 12 12 13 12 11 12 12 12 12 12 11 12 13 14 13 13 13 12 12 12 12 11 11 11 11 11 11 11 11 11 9
4 5 5 5 5 5 6 7 9 10 12 12 12 12 12 12 12 11 12 11 11 12 11 9 9 11 12 12 12 12 12 11 11 11 10 10 10 10 10 10 10 9 10
3 4 4 4 4 4 4 4 6 8 9 11 12 12 12 12 12 12 12 12 12 10 10 10 10 9 10 10 10 11 11 11 11 11 10 10 10 9 9 9 9 8 9
2 3 3 3 3 3 3 3 4 6 8 10 11 12 11 11 12 12 12 12 12 11 11 10 10 10 10 10 9 9 9 9 10 10 10 9 9 9 8 8 8 8 9
1 1 2 2 2 2 3 3 3 4 6 7 9 10 11 11 11 11 11 11 11 11 11 11 11 10 10 9 9 8 8 8 9 9 9 8 8 8 8 7 8 8 7
-0 0 1 1 1 1 2 3 3 4 6 7 7 8 8 10 11 11 10 11 11 10 10 9 9 9 9 9 8 7 8 8 7 7 7 7 7 7 7 7 6 7 7
-1 -1 -0 -0 -0 -0 1 2 3 5 6 6 6 7 8 8 9 10 10 10 10 10 9 9 9 8 8 8 8 8 8 7 7 6 5 6 5 6 6 6 6 6 6
-3 -2 -2 -2 -1 -1 -1 1 3 5 5 6 6 6 7 7 8 9 9 9 10 9 9 9 8 8 7 7 7 7 7 5 5 6 5 4 4 4 5 4 4 4 4
-4 -4 -4 -3 -3 -2 -1 0 2 4 4 4 5 6 6 5 6 8 8 9 9 8 9 8 8 8 7 7 6 6 5 4 4 4 4 4 3 3 3 3 2 2 3
-5 -5 -5 -4 -3 -2 -2 -1 1 3 3 3 3 4 5 5 5 6 7 7 7 7 7 8 8 7 7 6 5 5 4 3 2 3 3 3 3 2 3 2 1 1 1
-6 -5 -5 -4 -3 -3 -3 -1 -0 1 1 1 2 3 3 4 4 5 5 6 6 6 7 6 6 6 6 6 5 4 3 1 0 1 1 2 2 1 1 1 1 -2 -2
-6 -5 -5 -5 -4 -3 -3 -2 -2 -2 -1 0 1 1 2 2 3 4 4 5 5 5 5 5 5 5 5 5 4 3 3 1 -0 -0 -0 1 0 -1 -0 1 -0 -0 -1
-6 -6 -6 -5 -4 -4 -4 -3 -2 -2 -2 -1 -1 -0 0 1 1 3 3 4 4 4 4 4 4 4 4 5 3 2 3 1 1 -1 -0 -0 -0 -1 -0 -1 -1 -1 -2
-7 -7 -7 -6 -6 -6 -5 -4 -4 -4 -3 -3 -2 -1 -0 0 0 1 2 2 2 3 2 3 2 2 3 2 2 1 -0 -0 0 1 1 -1 -1 -1 -2 -1 -2 -2 -2
-7 -8 -7 -7 -6 -6 -6 -5 -5 -4 -4 -3 -3 -2 -1 -1 -0 0 0 1 1 1 1 1 1 1 1 1 1 0 -0 -1 -0 -0 -1 -1 -2 -2 -1 -2 -2 -2 -2
-8 -8 -8 -7 -7 -7 -7 -6 -6 -5 -4 -3 -2 -2 -2 -2 -1 -1 -0 -0 0 1 1 1 1 0 0 1 0 -0 -1 -1 -0 -1 -1 -2 -2 -3 -2 -2 -3 -3 -3
-10 -9 -9 -8 -8 -7 -7 -6 -6 -6 -5 -4 -3 -3 -3 -2 -2 -2 -1 -1 -0 -0 0 1 1 -0 -0 -0 -1 -1 -1 -0 -1 -2 -2 -3 -3 -3 -4 -4 -4 -4 -4
Height
730 733 734 737 739 745 746 749 753 759 768 774 780 788 792 799 805 811 815 821 824 829 832 835 840 843 847 850 855 858 862 868 870 872 879 883 885 886 889 889 889 891 893
728 727 729 731 732 732 735 735 740 750 759 764 769 779 786 793 802 809 814 818 822 827 830 833 836 842 845 850 852 856 860 865 870 871 875 883 889 887 889 891 894 892 893
723 723 722 724 729 729 729 725 726 741 752 759 765 776 784 793 801 806 811 813 818 823 827 831 834 838 843 848 851 853 856 862 867 870 870 878 879 886 889 890 893 895 894
720 720 720 720 724 728 729 730 734 741 747 756 761 768 775 783 790 795 803 809 814 818 824 827 831 835 838 844 849 852 853 856 861 867 867 867 870 879 887 889 891 893 895
718 717 717 716 720 726 726 733 736 742 747 749 759 765 772 778 784 791 799 805 809 814 818 821 826 830 835 838 844 847 850 854 856 860 864 867 870 872 876 884 890 892 896
718 717 718 719 719 725 727 729 732 738 742 750 759 763 768 773 780 787 793 798 803 808 812 817 819 824 829 834 838 843 845 850 853 856 859 862 866 870 871 878 886 889 893
725 722 721 720 720 723 726 730 733 739 745 752 759 762 765 768 774 780 786 792 797 801 806 810 814 816 822 830 834 837 842 845 850 852 854 858 862 864 868 870 879 886 892
730 731 729 728 727 726 729 732 735 739 744 746 751 759 762 767 774 778 782 786 790 794 800 804 809 814 818 824 829 833 838 840 845 849 854 857 859 862 864 865 870 882 886
740 737 736 734 734 733 732 734 735 740 743 746 750 753 761 765 768 774 778 782 787 791 794 799 803 808 813 820 824 828 834 835 839 842 847 855 858 859 861 863 863 867 877
749 747 745 741 742 740 737 736 739 741 743 746 749 753 753 760 766 770 774 779 780 785 791 798 798 801 807 813 818 824 829 830 832 838 843 848 853 856 859 860 861 862 865
758 756 756 750 747 746 743 744 741 742 743 746 749 750 754 760 763 766 769 774 775 777 783 786 790 798 801 805 813 817 821 825 827 833 838 843 847 850 854 857 857 861 863
768 765 762 758 754 755 752 750 749 747 746 746 746 749 754 758 762 765 767 769 771 777 784 784 783 787 793 795 807 810 813 816 816 822 829 833 837 842 846 851 854 856 858
776 772 768 763 762 760 758 756 753 751 750 749 750 753 755 758 760 763 765 768 769 774 776 782 780 782 786 792 800 801 806 810 811 816 821 826 827 833 839 844 851 854 856
784 781 775 772 769 766 764 759 756 754 753 752 753 755 756 757 759 761 764 766 768 771 773 776 776 778 782 787 793 797 801 806 810 814 820 822 827 830 832 842 844 849 853
788 785 780 777 774 770 765 761 759 756 753 753 754 756 755 755 756 759 760 762 765 768 770 771 773 776 780 783 787 791 798 802 806 811 817 824 828 831 833 836 845 846 851
798 793 788 782 779 775 771 766 761 759 756 753 754 754 753 754 754 756 757 759 760 763 765 767 770 774 777 780 783 788 792 797 801 810 816 820 826 830 833 839 844 847 847
806 800 796 792 788 783 778 772 766 765 762 757 757 757 756 756 755 755 756 757 758 760 762 764 767 770 773 777 781 785 788 792 797 803 810 816 822 828 831 839 844 846 850
809 803 800 794 789 782 781 773 769 768 765 762 760 759 756 756 755 754 754 755 756 757 759 762 764 767 770 773 778 781 786 791 796 799 806 810 819 826 830 835 842 847 850
807 807 806 799 791 784 782 778 771 771 767 763 765 764 760 758 757 755 754 755 755 756 757 759 761 764 767 771 775 778 783 787 794 799 806 811 817 824 829 835 841 845 849
811 813 807 795 789 787 783 776 774 770 768 767 769 765 762 760 758 756 755 755 755 755 756 757 759 761 764 768 772 775 780 785 792 798 806 811 816 823 828 833 838 844 850
813 812 796 791 788 786 781 778 775 775 773 769 768 765 763 761 758 754 754 754 755 754 755 756 758 760 763 766 770 773 776 781 789 796 804 810 817 823 828 833 836 840 845
815 806 798 793 790 787 780 780 778 777 774 771 767 764 763 761 757 754 753 754 754 754 754 755 757 759 761 765 769 773 775 779 782 792 801 809 816 822 827 832 837 841 846
816 809 802 797 793 788 784 782 779 776 774 770 765 764 763 761 758 755 753 754 755 754 754 756 758 760 762 766 769 774 778 781 784 790 799 809 816 822 828 833 838 840 844
813 809 804 799 794 791 788 784 780 776 772 768 764 762 763 761 758 756 754 754 755 755 754 755 758 760 762 765 770 775 780 782 786 794 803 810 817 823 828 834 838 841 844
816 810 805 801 799 795 790 787 781 777 772 767 764 763 762 760 758 756 754 754 755 755 754 754 754 757 761 764 767 770 774 777 783 794 803 810 815 821 827 832 836 841 844
817 810 806 802 798 794 791 787 780 774 771 766 764 764 762 761 758 757 755 754 754 755 755 754 754 757 760 764 768 771 774 777 785 793 801 808 814 820 825 830 835 841 844
Wind_Speed
18 12 16 23 26 25 18 29 30 37 38 35 34 32 37 36 34 34 31 30 27 26 24 25 26 27 29 30 30 29 28 24 25 22 17 14 11 11 10 11 13 15 15
10 14 12 19 24 27 19 33 48 41 43 40 41 29 31 34 35 32 31 28 29 27 26 26 28 29 30 30 33 31 24 20 27 11 11 4 3 7 8 8 9 13 14
13 12 9 17 18 17 15 14 38 42 37 33 33 26 29 19 28 30 32 31 30 29 28 29 29 30 31 33 33 34 28 20 22 24 6 4 3 7 5 8 9 9 12
7 10 10 14 19 19 23 24 26 36 36 36 34 33 30 23 25 32 36 32 30 29 28 29 29 31 32 33 35 34 33 32 25 24 6 6 12 3 4 5 9 11 11
6 8 8 15 18 19 26 27 31 30 33 35 36 38 30 32 32 34 35 33 31 31 30 31 31 31 32 34 37 37 36 34 32 26 14 11 8 9 4 4 6 9 10
2 4 4 8 12 15 19 25 23 25 27 33 33 37 34 32 29 32 35 37 36 34 33 34 33 32 33 35 36 38 39 37 33 30 25 16 7 7 5 4 6 10 9
11 7 4 2 8 13 17 21 27 24 30 33 34 35 34 34 35 36 35 34 36 37 37 36 36 35 34 35 35 37 38 39 36 36 33 25 16 9 10 8 7 4 4
14 14 11 8 5 9 13 16 21 25 30 30 33 32 31 31 32 33 32 35 38 40 38 37 36 35 34 33 33 34 37 39 38 34 33 30 24 16 16 12 14 3 4
15 16 16 19 17 15 11 5 12 18 25 32 33 30 30 29 31 30 29 30 30 30 37 39 38 37 34 33 32 33 35 35 36 35 32 30 28 22 18 18 23 13 6
16 15 14 21 21 21 19 17 12 9 21 24 26 29 24 28 31 30 30 31 29 28 29 32 39 37 36 33 31 33 33 31 31 32 31 29 27 24 21 20 22 23 12
15 14 14 20 22 24 27 24 20 15 10 13 16 17 21 25 24 25 25 26 20 22 32 33 32 32 33 31 33 34 31 28 25 24 25 23 23 22 22 22 21 25 16
14 13 16 19 23 23 23 23 22 18 13 7 5 10 15 17 22 24 26 23 21 31 32 27 29 31 32 29 34 33 29 28 26 24 25 23 19 18 18 18 22 24 18
15 14 14 18 21 22 22 21 22 20 15 11 6 7 12 17 18 21 20 21 21 24 21 22 22 23 27 32 36 34 32 30 29 32 27 24 23 21 18 17 19 20 16
15 14 14 16 20 20 21 22 23 20 16 12 8 4 5 8 12 14 16 18 19 20 20 21 20 23 27 31 34 34 32 34 32 28 28 28 26 24 23 22 20 20 18
17 16 15 14 21 23 24 23 24 22 19 16 13 8 3 4 6 9 10 12 14 16 18 19 21 23 26 29 32 33 36 36 34 33 30 26 23 22 22 23 22 22 21
15 16 16 21 22 24 24 23 25 25 22 20 17 15 11 6 2 3 6 9 11 9 15 18 19 23 26 29 31 36 39 38 37 34 29 26 25 24 24 23 20 16 18
15 15 15 19 20 21 22 22 20 19 20 19 18 15 13 9 5 2 3 5 7 9 12 17 18 23 27 29 33 36 38 38 37 37 35 33 30 30 27 20 14 12 12
15 13 18 21 22 22 22 23 18 15 17 18 18 17 15 12 10 6 5 6 8 11 14 19 19 23 26 26 31 33 36 33 35 36 39 38 34 29 27 22 19 15 13
18 18 18 18 17 19 23 20 17 13 17 18 16 15 13 10 10 10 8 9 10 12 15 18 21 24 25 25 31 35 33 33 33 36 36 36 34 30 25 26 24 18 15
20 21 21 16 17 21 22 18 17 17 20 18 16 14 12 10 8 7 8 9 10 12 13 15 18 21 22 23 34 34 32 33 33 32 33 34 34 28 27 26 25 23 19
20 23 22 19 20 21 22 17 16 18 19 19 16 14 12 10 7 5 6 8 8 9 12 14 16 17 19 25 34 36 35 37 33 33 32 31 27 25 26 24 20 24 25
21 23 22 22 22 21 20 18 17 19 20 19 15 15 16 13 9 5 5 6 8 10 11 12 13 15 20 26 33 31 36 37 41 35 34 31 28 26 24 19 20 22 22
20 20 19 21 21 21 19 19 20 20 20 19 14 15 15 14 11 7 3 5 9 12 14 16 17 18 22 25 26 24 26 31 36 39 36 32 28 23 21 21 21 22 21
21 20 19 19 21 23 19 18 21 22 20 17 17 17 16 14 11 9 6 7 10 13 16 17 16 19 23 25 26 26 28 29 34 35 32 30 27 25 24 21 22 20 20
21 20 19 18 19 22 20 19 18 18 19 18 17 17 15 13 12 10 8 9 12 15 19 20 24 26 21 25 32 35 34 38 41 39 34 31 30 27 27 26 22 20 18
20 21 22 21 23 24 24 22 20 18 19 18 17 17 14 14 11 10 10 8 10 12 14 19 24 21 23 29 31 30 35 41 40 34 30 27 27 26 23 24 21 19 17
Wind_Direction
248 231 228 226 207 203 206 222 215 197 185 180 181 190 195 201 202 203 199 199 195 194 192 189 188 185 184 179 177 168 162 151 150 126 107 100 116 122 122 124 132 140 152
229 248 233 213 214 215 246 249 204 188 187 187 187 187 191 199 204 203 204 203 202 201 198 195 191 191 186 184 181 175 160 160 159 146 123 132 105 110 134 139 137 144 147
235 227 219 208 212 203 205 186 173 173 182 181 174 182 188 187 198 205 209 207 207 207 206 201 198 194 194 191 187 185 174 164 172 166 145 145 174 143 149 158 163 160 154
245 228 197 196 208 190 180 169 157 169 174 184 174 181 178 181 198 202 206 206 206 207 209 205 203 201 197 199 197 194 188 180 179 184 182 157 139 159 156 176 176 179 171
240 234 215 200 203 183 172 176 172 169 180 185 189 189 185 194 202 204 205 206 207 209 208 207 206 206 204 204 204 199 196 198 187 185 175 147 149 144 143 156 168 173 185
43 234 259 199 206 181 171 180 182 181 188 195 196 195 193 192 192 198 201 206 208 208 210 210 208 209 208 210 208 210 204 205 203 197 196 178 164 180 155 120 154 169 184
46 39 356 331 177 184 177 172 177 179 194 200 202 205 202 205 203 202 199 201 206 208 210 210 210 210 211 213 211 211 212 211 213 213 210 209 204 189 177 134 142 150 169
31 43 37 31 12 173 186 190 176 177 194 202 207 207 209 210 211 212 207 208 210 214 214 212 214 214 213 215 215 215 217 217 219 221 222 223 221 217 209 177 156 145 165
31 26 38 44 34 45 63 140 179 194 187 200 202 211 215 215 217 219 217 219 220 218 221 217 215 216 215 217 214 218 221 220 222 225 226 230 231 227 223 220 201 164 174
28 29 23 34 38 37 45 65 76 176 204 202 199 204 213 229 227 230 226 227 230 227 229 230 221 218 215 214 215 218 221 220 222 226 227 229 236 237 233 226 218 213 178
27 24 23 28 30 29 41 44 52 55 78 192 205 209 211 221 230 237 243 243 245 257 244 228 226 217 214 213 215 217 215 214 215 221 223 228 233 234 234 229 222 217 202
25 23 20 24 29 19 19 26 39 44 43 48 190 214 221 225 232 237 241 239 235 235 232 229 222 212 213 209 218 212 209 204 200 208 207 205 208 211 215 220 213 204 200
21 19 19 23 18 14 9 10 17 26 35 50 101 181 205 210 218 226 231 232 229 233 231 228 221 220 220 217 216 217 210 212 205 202 194 191 188 184 182 185 194 190 188
21 15 15 12 11 11 6 5 5 18 26 40 64 118 177 207 220 226 229 231 229 231 230 231 231 227 223 221 220 216 211 207 194 189 191 188 180 175 166 172 169 171 169
14 8 6 2 1 0 358 3 5 17 26 31 39 44 46 204 226 233 234 232 222 229 227 220 218 219 218 216 209 208 201 191 185 192 189 189 186 179 173 163 159 151 148
4 2 2 357 355 350 345 352 6 17 26 31 23 14 17 25 22 242 237 223 209 228 221 221 221 219 220 220 216 204 193 194 197 190 186 180 176 172 165 167 173 177 171
356 356 355 348 345 341 337 341 356 14 15 28 21 10 0 5 2 328 257 225 227 227 233 223 223 223 223 220 211 208 206 197 194 188 179 170 171 170 167 167 174 173 176
344 349 341 338 337 345 340 351 0 13 16 19 16 7 358 344 340 324 288 274 264 250 236 230 231 227 224 218 210 212 202 192 189 185 179 173 173 173 169 163 159 155 158
347 338 326 329 337 351 344 344 356 352 14 17 4 0 357 342 333 323 308 282 262 245 237 232 227 222 223 214 201 195 190 183 178 179 180 179 174 174 175 165 157 147 141
344 327 326 343 355 352 346 359 359 8 6 1 347 351 350 343 332 323 311 291 271 256 242 232 228 226 223 208 195 188 177 163 161 167 176 178 175 168 170 170 158 150 148
338 328 347 355 353 351 354 358 9 5 351 353 348 351 351 338 333 331 309 290 267 245 235 232 230 228 225 204 199 190 182 170 159 158 162 170 171 162 164 173 178 178 164
340 346 347 346 348 354 2 352 356 348 347 349 351 353 343 337 337 331 314 275 243 223 211 209 207 213 205 204 185 189 191 178 167 161 167 165 160 158 168 172 170 163 164
343 345 346 343 348 354 358 346 343 341 337 343 350 348 336 328 332 321 295 242 220 199 184 176 172 175 183 175 178 175 169 165 166 170 170 155 157 161 158 159 156 161 166
347 345 347 350 343 348 352 348 340 340 339 338 342 342 334 326 320 316 295 256 222 198 178 167 161 161 164 166 168 165 159 154 159 155 149 153 149 152 148 152 162 165 168
344 346 346 346 340 343 347 353 347 346 344 341 338 334 331 322 314 306 287 261 249 231 198 187 178 166 168 172 170 166 161 159 156 144 145 147 150 152 157 157 158 162 163
340 345 345 344 342 347 351 354 357 355 349 342 335 327 322 317 309 297 290 270 258 244 229 214 204 183 185 173 172 166 162 155 147 146 146 146 148 150 153 154 154 160 162